Regional Weather Roundup
Issued by NWS

Home | Current Version | Previous Version | Graphics & Text | Print | Product List | Glossary On
Versions: 1 2 3 4 5 6 7 8 9 10 11 12 13 14 15 16 17 18 19 20 21 22 23 24 25 26 27 28 29 30 31 32 33 34 35 36 37 38 39 40 41 42 43 44 45 46 47 48 49 50
000
ASUS43 KLSX 260959
RWRMO

WEATHER SUMMARY FOR MISSOURI
NATIONAL WEATHER SERVICE SPRINGFIELD MO
500 AM CDT SAT JUL 26 2014

NOTE: "FAIR" INDICATES FEW OR NO CLOUDS BELOW 12,000 FEET WITH NO
       SIGNIFICANT WEATHER AND/OR OBSTRUCTIONS TO VISIBILITY.
       CURRENT SKY AND/OR WEATHER CONDITIONS ARE NOT AVAILABLE FOR
       CHILLICOTHE AND FARMINGTON.

MOZ001>031-035>038-043-044-053-054-261100-
...NORTHERN AND WESTERN MISSOURI...

CITY           SKY/WX    TMP DP  RH WIND       PRES   REMARKS
KANSAS CTY INT MOCLDY    79  71  76 SW9       29.81R
KANSAS C DTWN  PTCLDY    83  70  64 SW10G20   29.80R
LEE`S SUMMIT   CLEAR     79  71  76 SW12      29.84R
ST JOSEPH      PTCLDY    73  71  93 CALM      29.80S
CHILLICOTHE      N/A     74  72  93 CALM      29.83R
KIRKSVILLE     CLEAR     75  71  87 SW6       29.83R

$$
MOZ066>068-077>081-088>096-101>105-261100-
...SOUTHWEST MISSOURI...

CITY           SKY/WX    TMP DP  RH WIND       PRES   REMARKS
SPRINGFIELD    MOCLDY    74  71  91 S12       29.93R
JOPLIN         CLEAR     77  71  82 S14       29.91R

$$
MOZ032>034-039>042-045>050-055>058-069>072-261100-
...CENTRAL MISSOURI...

CITY           SKY/WX    TMP DP  RH WIND       PRES   REMARKS
COLUMBIA       CLEAR     73  71  93 S7        29.86S
JEFFERSON CITY CLEAR     75  70  84 SE3       29.86R
ROLLA          PTCLDY    73  69  87 SW13      29.89S
SEDALIA        CLEAR     79  71  76 SW16G22   29.86R
OSAGE BEACH    MOCLDY    73  70  88 SW7       29.88S

$$
MOZ051-052-059>065-261100-
...EAST CENTRAL MISSOURI...

CITY           SKY/WX    TMP DP  RH WIND       PRES   REMARKS
ST LOUIS INTL  MOCLDY    73  65  75 S6        29.89S
SPIRIT OF STL  MOCLDY    72  67  84 CALM      29.87S
ST CHARLES     MOCLDY    68  66  93 E5        29.87S

$$
MOZ072>076-082>087-097>100-106>115-261100-
...SOUTH CENTRAL AND SOUTHEAST MISSOURI...

CITY           SKY/WX    TMP DP  RH WIND       PRES   REMARKS
CAPE GIRARDEAU CLEAR     68  64  87 S7        29.93F
FARMINGTON     CLEAR     70  66  88 S7        29.95R
POPLAR BLUFF   CLEAR     67  63  87 S3        29.93S
WEST PLAINS    CLEAR     70  68  93 S5        29.97S

$$



USA.gov is the U.S. government's official web portal to all federal, state and local government web resources and services.